Wind_Speed
19 18 19 20 21 22 22 23 26 29 30 30 28 28 31 33 32 30 29 29 30 31 31 29 27 25 26 27 28 28 28 30 31 30 29 28 30 31 31 30 30 29 28 27 26 25 26 26 26 26 25 25 24 24 24 24 24 24 24 24 24 23 23 22 21 21 21 21 22 23 23 22 21 20 20 20 20 20 19 19 19 18 18 18 18
21 20 20 21 21 21 21 21 23 25 27 26 27 28 30 31 31 30 29 29 29 30 30 29 27 26 26 27 29 29 28 30 32 32 31 29 30 32 32 32 32 30 29 29 29 28 28 28 27 27 27 27 26 26 25 25 25 25 25 25 25 24 23 21 21 21 22 21 22 22 22 21 21 20 20 20 20 20 20 20 20 20 20 20 20
22 22 22 23 23 22 20 20 21 22 24 24 24 27 29 30 29 29 29 29 29 29 29 28 27 26 26 26 28 29 30 30 32 34 34 32 31 33 34 34 33 32 31 30 30 30 29 29 29 28 28 28 28 28 27 26 26 26 26 26 25 25 24 22 20 21 21 21 21 22 22 21 21 20 20 20 20 21 21 22 22 22 22 22 22
21 21 21 21 22 22 21 19 19 20 21 22 23 24 26 27 28 27 27 28 28 29 29 29 28 27 26 26 27 29 30 31 32 34 36 35 34 34 35 35 34 33 32 32 31 31 31 30 30 29 29 29 29 28 27 27 27 27 27 27 26 26 25 23 21 21 22 22 22 22 22 21 21 20 20 20 21 21 22 23 23 22 22 22 22
22 21 21 20 20 20 20 19 18 18 17 18 20 22 24 25 25 25 25 27 28 29 28 28 29 28 27 26 27 29 31 33 33 34 35 36 35 35 36 36 35 33 33 32 32 32 32 31 31 30 29 29 28 29 28 28 27 28 28 27 27 26 25 24 22 21 22 22 22 22 22 22 22 21 21 21 21 22 23 23 23 23 23 23 23
21 21 21 21 20 19 18 18 18 18 17 16 16 19 21 22 22 22 23 26 28 29 27 27 28 29 28 27 26 27 29 32 34 34 36 36 35 35 36 36 35 34 33 32 32 32 32 32 31 30 29 28 28 29 29 28 29 29 29 28 27 27 26 25 23 22 22 22 22 22 23 23 22 22 22 22 22 23 23 23 23 23 24 25 25
20 19 19 20 20 19 18 17 18 18 17 16 15 15 17 18 18 20 21 22 25 27 26 26 27 28 29 28 26 24 26 29 33 34 36 36 35 35 35 35 35 33 33 33 33 32 32 32 31 30 29 28 28 29 29 29 30 30 30 29 28 28 27 26 25 24 23 22 22 22 22 22 22 22 23 23 24 23 23 23 24 25 26 27 27
19 19 18 19 19 19 18 17 17 18 18 17 17 16 15 15 16 18 19 20 22 24 25 26 26 27 28 29 28 25 24 27 31 33 34 36 35 35 35 35 35 34 33 33 33 32 32 32 30 29 28 28 28 29 30 30 30 31 30 29 29 29 28 27 26 25 24 23 22 22 21 21 21 22 23 24 24 24 24 26 27 27 28 30 31
21 20 19 19 19 19 18 18 17 18 18 19 18 18 18 17 17 18 19 20 21 22 24 25 26 26 27 28 29 28 25 26 30 32 33 35 36 35 35 36 35 34 33 33 33 33 32 31 29 28 28 28 28 29 30 31 31 32 31 30 29 29 28 28 27 26 25 24 22 21 21 22 22 24 24 24 25 25 27 29 30 30 31 33 34
22 21 21 20 20 20 19 19 18 17 18 19 19 19 19 20 19 19 20 21 22 22 23 25 26 26 26 26 28 29 28 26 28 30 32 34 36 36 36 36 35 34 33 33 33 33 32 30 29 29 28 28 29 30 31 31 32 32 32 31 30 29 28 28 28 28 27 25 22 21 23 24 25 26 27 27 27 28 30 31 32 32 33 35 36
24 23 23 22 22 21 21 20 19 18 18 19 20 20 21 21 21 21 21 22 23 23 23 24 25 25 26 27 27 29 30 28 28 29 30 33 36 36 36 35 35 34 34 34 34 33 32 31 30 30 29 29 29 30 31 32 33 33 33 32 31 30 29 28 29 29 27 26 23 21 24 28 28 28 28 29 30 32 33 33 33 34 35 36 38
26 26 25 24 24 23 23 22 21 20 19 19 20 21 22 22 21 21 22 23 24 25 25 26 26 26 26 27 28 30 31 31 31 31 32 32 35 36 36 35 35 34 34 35 34 33 32 32 31 31 30 30 30 31 32 33 33 34 33 32 31 30 30 29 29 29 28 27 24 22 26 31 30 28 29 29 32 33 32 32 33 34 36 37 39
28 28 27 27 26 25 25 24 23 22 21 20 20 22 23 23 23 22 22 23 25 26 28 29 29 29 28 29 30 31 32 32 33 33 33 32 33 36 36 36 35 35 35 35 35 34 33 32 32 31 31 31 31 31 32 33 33 33 33 33 32 31 31 31 31 31 30 29 27 26 30 32 30 27 26 28 32 33 32 33 34 35 37 38 40
30 29 29 27 27 27 26 26 25 24 23 22 21 22 23 24 24 24 23 24 25 27 29 29 30 31 31 31 31 32 33 34 34 35 34 32 32 34 36 37 37 36 36 35 35 34 33 33 32 31 31 31 31 31 32 32 33 33 33 33 34 33 33 32 32 32 31 31 30 30 32 33 32 29 26 29 34 36 35 36 37 38 39 40 40
32 30 29 27 27 27 27 27 27 26 26 25 24 23 23 23 24 24 25 25 26 28 30 30 31 32 32 32 32 32 33 34 35 36 35 33 31 33 36 37 38 38 36 35 35 34 34 34 33 31 31 30 30 30 31 31 32 32 33 34 34 35 34 34 34 33 32 32 33 32 33 33 34 34 33 35 38 38 38 38 39 39 40 40 41
32 31 29 29 29 28 28 27 28 28 28 27 27 25 25 24 24 24 25 26 27 28 29 31 32 33 32 32 32 31 31 33 35 36 36 34 32 33 35 37 40 39 36 35 36 35 35 34 34 33 31 30 29 30 30 31 32 32 33 33 34 35 35 35 34 34 34 34 34 35 35 34 34 35 36 37 38 38 38 39 39 39 40 40 41
33 32 31 31 30 30 29 29 28 28 28 28 29 28 27 26 26 25 25 25 27 28 29 30 32 32 33 33 32 31 32 34 36 36 36 35 34 34 35 37 39 40 38 36 36 36 36 35 35 34 32 31 30 30 31 32 32 33 33 34 34 35 35 35 35 35 35 36 36 36 36 36 35 36 37 38 38 38 39 39 38 39 39 40 42
35 35 34 33 32 31 30 30 30 30 29 29 29 29 29 28 27 27 26 26 27 28 29 30 30 32 33 34 33 34 35 35 36 36 35 34 34 35 36 37 39 41 41 39 38 38 38 37 37 36 34 33 32 31 32 32 33 33 34 34 35 35 35 36 36 36 36 36 36 36 37 37 37 38 39 39 38 38 37 37 38 39 39 40 41
39 38 37 36 35 32 31 31 32 32 31 31 30 30 30 30 30 29 28 27 27 28 29 29 30 31 32 32 33 34 35 35 35 36 35 34 34 35 37 39 40 41 42 42 41 41 40 38 37 36 36 35 34 33 33 33 34 34 34 35 35 35 35 35 35 35 35 35 36 37 37 38 38 39 39 39 38 37 36 37 39 40 41 41 42
41 41 40 39 37 35 33 32 32 33 33 33 32 31 29 30 31 31 30 29 28 28 28 29 29 29 30 31 32 34 35 35 34 35 34 34 35 37 38 39 40 39 39 41 41 42 42 41 39 38 38 37 36 36 36 36 36 35 35 36 36 35 35 35 35 35 35 36 37 38 38 39 40 41 41 41 41 40 40 41 42 43 43 43 43
43 43 43 43 41 39 37 35 33 34 34 34 34 33 31 30 30 31 31 31 29 28 28 28 29 29 31 33 36 38 38 36 35 36 37 37 38 39 39 39 39 38 38 39 40 41 41 41 41 40 39 39 38 38 38 38 38 38 38 38 38 37 37 36 36 36 37 38 38 39 40 41 41 42 42 42 42 42 43 43 44 45 45 45 44
45 45 46 46 45 43 41 39 37 36 35 35 34 34 33 32 31 30 31 31 30 28 27 27 28 29 32 34 35 38 40 38 36 39 41 40 39 38 37 36 38 39 39 39 39 39 38 39 39 40 40 40 40 40 40 40 40 40 40 40 40 40 39 38 38 38 38 39 40 40 40 40 40 41 42 42 43 44 44 45 46 46 46 45 44
46 46 46 47 47 46 45 43 41 40 39 37 36 35 34 34 33 32 31 31 30 28 27 28 29 31 33 32 31 34 36 36 37 41 43 41 38 36 36 36 38 39 38 37 37 37 38 39 40 39 38 39 39 40 41 42 42 41 42 42 42 42 42 40 40 39 39 40 40 40 39 39 40 41 42 43 44 44 45 46 45 45 44 44 43
44 45 46 46 47 48 47 46 44 43 42 42 40 38 36 35 35 34 32 32 30 27 27 27 26 26 28 31 32 34 35 34 35 40 43 41 38 36 36 37 38 38 37 36 37 38 39 40 41 40 39 39 39 40 42 43 43 43 43 43 44 44 44 42 41 40 40 40 40 40 39 40 40 41 42 43 44 45 45 44 44 43 43 43 43
43 44 44 45 45 46 46 47 46 45 44 44 44 43 40 38 36 35 33 32 31 28 27 28 25 21 22 25 28 32 36 35 35 38 42 41 38 37 36 36 36 38 38 37 35 35 36 37 38 39 40 41 42 43 44 44 44 43 43 44 45 45 45 43 42 41 41 41 42 42 42 42 42 42 43 44 44 44 43 42 42 42 43 43 44
42 43 43 43 44 44 44 45 46 45 45 44 44 45 44 41 38 36 35 34 32 29 28 30 29 25 22 20 18 22 30 34 34 37 39 39 38 39 39 37 36 36 36 33 31 31 32 33 34 36 38 40 42 43 43 44 44 44 44 44 43 43 44 44 43 43 42 42 43 43 42 42 43 44 45 45 44 43 42 42 43 43 44 45 46
42 42 42 43 43 43 43 43 44 44 44 44 43 43 44 42 39 38 36 35 34 32 30 30 29 26 23 22 19 18 24 30 32 35 37 38 39 42 42 42 41 39 37 36 35 36 37 38 40 41 42 43 44 44 44 44 44 44 44 43 42 42 43 43 43 42 42 43 44 44 44 43 44 45 46 44 43 42 42 43 44 45 46 47 49
42 43 43 42 43 43 44 44 44 43 43 43 42 42 42 41 39 38 38 36 36 34 32 31 31 27 24 24 24 23 24 28 31 34 36 38 41 44 45 45 45 44 43 42 41 41 42 44 44 44 43 43 44 46 47 46 45 44 44 44 43 42 43 43 44 44 45 46 47 48 46 43 42 42 42 41 41 41 43 44 45 47 48 49 50
42 43 43 43 43 43 43 44 44 44 43 43 43 43 42 40 39 38 38 37 37 37 35 34 34 33 30 29 29 28 28 30 32 34 36 38 40 43 45 46 45 44 43 42 42 43 44 45 45 43 41 40 41 44 46 46 45 45 45 45 44 44 44 46 47 49 49 49 48 47 44 40 39 39 40 40 40 42 43 45 46 48 48 49 50
41 42 43 43 44 43 44 44 44 44 44 44 44 43 42 41 40 39 38 36 36 37 37 36 36 36 35 34 33 33 32 33 33 34 35 36 38 40 42 43 43 43 43 44 45 45 45 45 45 43 40 37 39 44 47 47 45 45 45 46 46 46 47 49 50 50 48 46 43 42 39 38 39 40 40 41 42 43 45 46 47 48 48 49 50
37 38 40 41 42 43 44 44 44 44 44 44 44 43 42 41 40 40 39 38 36 36 38 38 38 38 36 35 34 35 35 35 36 35 35 35 36 37 39 40 41 42 43 44 45 44 43 43 43 42 40 37 38 42 46 47 45 44 44 44 45 47 48 49 49 46 43 40 39 39 39 39 40 41 41 43 44 45 46 47 47 48 49 50 50
34 35 36 37 38 39 41 42 43 43 43 43 43 43 43 42 41 40 40 40 38 37 37 39 39 39 38 37 35 35 35 35 36 37 38 38 38 38 39 39 39 39 39 40 40 41 41 41 40 40 39 39 39 40 42 44 43 43 42 43 44 44 43 42 41 40 40 40 40 41 42 42 42 43 44 45 45 46 47 48 49 50 50 50 49
31 31 32 33 34 35 36 38 40 41 42 42 42 42 43 43 42 41 40 40 39 38 38 39 40 40 41 41 41 40 39 38 38 38 38 39 39 40 40 40 40 40 39 38 38 39 41 41 41 40 39 39 40 40 41 41 42 42 42 42 42 41 39 37 37 39 40 41 42 42 43 44 45 46 46 47 47 48 49 50 50 50 49 48 47
28 29 29 30 31 32 32 34 35 37 39 40 41 41 42 42 42 41 40 39 38 38 39 39 40 41 42 43 43 43 44 43 43 43 42 41 40 39 39 40 40 40 39 38 37 37 38 40 41 41 40 40 40 40 41 42 42 42 42 41 41 41 40 39 38 39 40 41 42 43 45 47 48 49 49 49 50 50 50 49 49 48 47 46 46
26 27 27 28 29 29 30 31 32 33 35 36 38 39 40 41 41 41 40 39 38 38 39 39 39 40 41 43 43 43 44 44 44 44 44 44 43 42 41 40 39 38 37 36 34 34 36 38 40 42 42 42 42 42 43 43 42 41 40 40 40 41 42 41 40 39 40 42 44 46 49 51 51 51 51 51 50 48 47 47 46 45 45 45 46
25 25 26 27 27 28 28 29 30 31 31 33 34 37 38 40 40 40 40 40 40 39 39 39 39 39 40 42 43 44 44 43 42 40 40 40 40 40 39 38 37 36 35 34 33 33 34 35 38 41 43 44 43 43 43 43 42 41 41 41 41 42 43 43 43 43 45 46 48 49 50 51 50 50 49 47 46 45 44 44 44 44 45 46 47
26 26 26 26 26 27 27 27 28 29 29 30 31 33 35 37 38 40 40 40 40 40 40 40 40 40 40 40 40 42 43 44 43 42 40 39 38 37 37 36 35 34 33 33 33 33 34 34 36 38 40 42 42 42 42 42 41 41 41 42 43 44 45 46 46 46 46 47 48 48 48 48 47 45 44 42 42 42 42 43 43 44 46 47 48
28 28 28 28 27 27 27 27 27 27 27 28 28 29 30 32 34 37 38 40 40 41 41 41 41 41 41 41 40 39 40 41 42 43 42 42 41 40 39 38 37 36 35 35 35 35 35 36 36 37 38 39 40 40 41 41 41 42 42 43 44 45 46 46 45 45 45 45 46 46 45 43 42 40 40 40 40 41 42 43 44 45 46 46 47
29 30 30 30 29 28 27 27 27 26 26 26 26 27 27 28 30 32 34 37 39 40 41 41 41 41 41 41 41 41 40 40 40 40 40 40 41 41 40 40 39 39 39 39 39 39 38 38 39 39 39 40 40 41 42 42 42 43 43 44 44 45 45 45 44 43 42 42 41 40 39 38 38 38 39 40 40 41 42 42 43 44 45 46 47
31 31 32 32 31 30 28 26 26 26 26 25 24 25 25 26 26 27 29 31 34 37 39 41 42 42 41 41 40 41 41 42 42 41 40 38 37 38 38 38 38 38 38 39 39 40 40 40 40 41 41 42 42 43 43 43 43 43 42 42 43 42 42 41 39 38 37 36 36 36 36 37 38 38 39 39 40 40 41 42 43 44 45 46 47
32 33 33 33 34 33 31 28 25 24 24 24 24 23 24 24 25 25 26 27 28 31 34 37 40 41 42 42 41 40 40 40 41 42 42 41 39 38 38 38 38 38 38 38 38 38 38 39 39 39 40 41 41 42 42 41 41 40 39 38 38 37 36 35 35 34 34 34 35 35 36 36 37 37 38 39 39 40 41 42 43 44 44 44 44
34 34 34 35 35 35 33 31 27 24 23 23 23 23 23 23 24 24 24 24 25 26 28 31 34 37 40 41 42 41 40 39 39 39 40 41 41 40 39 38 38 38 38 38 38 38 37 37 37 37 38 38 38 38 38 38 37 36 35 34 34 33 33 33 33 33 33 33 34 35 35 36 36 37 38 39 40 40 41 41 41 41 41 40 40
36 35 35 35 36 36 35 33 30 27 24 23 23 24 23 23 23 23 23 23 23 23 24 25 27 30 34 36 38 39 40 40 39 38 38 38 39 39 38 37 36 36 36 36 36 35 35 35 35 35 35 35 35 35 34 34 33 33 32 32 32 32 31 31 31 32 32 32 33 34 35 35 36 37 37 38 38 38 38 38 38 37 37 36 36
39 37 36 36 36 36 36 35 32 29 26 24 23 24 24 23 23 23 22 22 22 22 22 22 23 24 26 29 32 34 36 37 38 38 38 37 36 36 36 36 35 34 33 33 33 33 32 32 32 32 32 32 31 31 31 31 30 30 30 30 29 29 29 30 30 31 31 32 33 33 34 35 35 36 36 36 36 35 35 35 34 34 33 33 33
39 39 38 37 36 36 36 35 34 31 28 25 23 23 23 24 23 23 22 22 22 21 21 21 21 21 22 23 25 28 30 32 34 35 36 36 36 35 34 34 33 33 32 32 31 30 30 30 30 29 29 29 29 29 29 29 29 28 28 28 28 29 29 30 30 31 31 32 32 33 33 33 33 33 32 32 32 32 31 31 31 31 31 30 30
39 40 39 38 37 36 36 36 34 32 29 27 24 23 23 23 23 23 22 22 21 21 21 20 20 20 20 20 21 23 25 27 29 30 32 32 33 34 33 33 32 31 31 30 30 29 29 28 28 27 27 27 27 27 27 27 27 27 28 28 29 29 29 29 29 29 30 30 30 30 29 29 29 28 28 28 29 29 29 29 29 29 29 29 29
39 40 40 39 38 37 37 36 36 34 31 27 25 24 23 23 22 22 21 21 21 20 20 20 20 19 19 19 19 20 21 23 25 26 27 28 29 30 30 31 30 30 29 29 28 28 28 27 26 26 25 25 25 25 25 25 26 26 26 26 26 26 26 26 26 26 26 26 25 25 25 25 26 26 26 26 27 27 28 27 27 27 27 27 27
38 39 40 40 39 38 37 37 36 35 32 29 25 24 23 23 22 21 20 20 20 20 20 20 20 19 19 19 19 19 19 20 22 23 24 25 26 26 27 27 28 28 28 27 27 27 26 26 25 25 24 24 24 24 24 24 23 23 23 23 23 23 23 23 23 23 23 23 23 23 23 24 24 25 25 25 26 26 26 26 26 26 26 26 26
37 39 40 40 40 39 38 37 37 36 34 30 26 24 23 23 23 22 20 18 18 18 19 19 19 19 19 19 19 18 18 19 20 21 22 23 24 25 25 25 26 26 26 26 26 26 25 25 24 24 23 23 23 23 22 22 21 21 22 22 22 22 22 21 21 21 21 21 21 22 22 23 23 23 24 24 24 25 25 25 25 25 25 25 25
37 38 39 40 40 39 38 37 37 36 35 32 28 24 23 22 23 23 22 19 17 16 17 17 18 18 18 18 18 18 18 18 19 19 20 21 22 23 24 24 24 25 25 25 25 25 24 24 24 23 23 23 22 22 21 21 21 21 21 21 20 20 20 20 20 20 20 20 21 21 21 21 22 22 22 23 23 23 24 24 24 24 24 24 24
37 37 39 39 40 39 38 37 36 36 35 33 29 25 23 22 22 23 23 22 19 17 16 16 17 17 17 17 17 17 18 18 18 18 18 19 20 21 22 23 24 24 24 24 24 24 24 24 23 23 22 22 21 20 20 20 20 20 19 19 19 19 19 19 19 19 19 20 20 20 20 20 20 21 21 22 22 22 23 23 23 23 23 23 23
Wind_Direction
281 279 277 278 280 284 283 275 264 258 256 255 254 248 242 241 243 247 248 247 246 245 247 250 251 248 247 246 245 246 246 240 235 232 229 230 235 236 235 234 233 232 233 235 235 237 241 244 245 248 250 253 255 255 255 255 256 258 260 261 262 264 265 269 273 274 273 268 264 262 261 260 259 257 256 254 253 252 247 243 243 243 246 248 250
279 279 280 281 285 289 291 289 279 266 259 257 254 248 243 241 242 244 246 247 247 247 248 251 251 249 250 250 247 247 247 242 239 234 227 224 230 235 235 234 233 233 233 236 238 240 243 245 247 249 252 255 256 256 256 255 256 257 258 259 260 261 263 266 269 271 270 267 264 261 260 260 259 257 256 254 252 251 248 245 244 245 247 249 252
280 281 282 283 285 287 289 291 287 275 263 256 253 250 246 243 242 243 245 248 249 249 249 250 251 253 255 254 250 248 247 245 240 235 229 224 224 230 233 233 233 233 234 237 240 242 244 245 247 250 252 255 256 257 257 256 256 256 257 258 258 259 261 263 265 267 267 266 264 262 261 260 258 256 255 253 251 250 248 246 246 246 248 251 254
283 282 282 283 285 288 288 288 288 283 271 259 252 250 248 245 243 244 246 247 249 251 250 248 249 252 255 257 255 252 250 247 241 234 231 228 225 226 231 233 233 234 236 239 240 242 243 245 248 250 253 255 256 256 256 256 255 256 257 257 258 258 259 260 262 263 264 264 263 262 262 261 259 256 254 251 249 247 247 246 247 248 251 254 258
285 284 283 282 283 287 290 288 285 286 282 269 257 251 249 245 243 245 247 247 247 249 248 246 246 247 250 254 256 256 254 248 241 234 231 231 229 228 230 232 234 235 238 241 242 243 245 246 249 251 253 254 255 255 255 254 254 256 257 258 257 258 259 260 260 260 261 262 261 261 261 260 259 257 254 251 247 246 247 248 249 251 254 257 260
285 284 283 283 283 285 288 288 286 285 286 280 265 251 245 242 242 245 248 247 245 246 248 248 248 247 248 250 253 258 258 249 240 234 231 232 233 232 231 232 235 237 241 243 244 245 247 248 250 251 252 253 253 253 252 252 253 255 256 256 256 257 258 258 258 258 259 260 261 260 259 259 258 257 256 252 248 247 248 250 251 253 255 257 261
289 288 286 285 284 284 285 285 285 284 284 282 275 260 247 242 245 249 252 252 249 248 250 252 251 250 249 249 250 255 257 249 240 235 232 232 235 236 235 234 236 239 243 245 245 245 248 249 250 250 251 251 251 251 251 250 251 253 254 254 254 255 256 256 257 257 258 260 261 261 259 258 258 257 257 255 253 252 252 253 253 254 256 259 262
292 293 291 289 287 286 285 283 281 281 280 278 276 272 265 257 254 256 258 258 254 251 251 252 253 252 251 250 249 251 253 250 243 238 235 232 234 238 237 236 237 240 244 246 246 247 248 248 248 249 250 250 249 249 249 249 250 251 252 252 253 255 256 257 258 259 259 259 259 260 261 260 259 258 256 256 256 254 253 252 252 254 257 260 264
290 292 293 292 290 287 285 282 279 276 276 276 274 273 271 267 263 261 261 262 259 256 254 252 252 254 253 251 249 248 251 250 245 241 237 233 233 236 237 236 238 242 245 247 247 247 248 247 248 248 249 249 248 248 248 249 250 250 250 251 252 254 256 258 259 259 259 258 257 259 261 260 259 258 256 255 255 254 254 254 255 257 260 263 267
288 289 290 291 290 289 286 283 279 275 273 273 272 271 269 268 266 263 262 262 262 261 259 256 254 254 254 253 250 248 248 248 245 242 238 234 234 236 237 237 239 244 247 246 246 246 246 247 248 249 248 247 247 247 248 249 249 249 249 249 250 252 255 257 258 259 259 258 259 261 262 260 258 257 256 256 256 255 255 257 259 261 264 267 270
288 289 289 289 289 289 288 287 284 280 275 273 272 270 268 267 266 264 263 262 263 262 261 259 257 255 255 254 252 249 246 244 243 242 240 238 238 238 238 238 240 244 246 244 244 245 246 247 248 248 247 246 245 246 247 248 248 248 248 248 249 251 253 255 257 258 258 257 258 260 260 258 256 256 257 257 258 258 259 261 263 266 268 270 272
287 288 289 289 288 287 288 288 288 286 282 278 276 274 272 269 266 264 263 262 261 261 260 259 256 255 256 256 253 249 246 242 240 242 243 243 242 240 238 238 240 242 243 243 244 245 247 247 247 246 245 245 245 245 246 247 248 248 248 248 249 250 252 253 255 257 258 257 256 253 253 254 253 256 260 262 262 261 261 262 265 268 270 272 273
285 287 288 289 288 286 286 286 286 286 285 281 278 275 275 273 271 267 263 262 261 260 260 258 255 251 252 254 252 249 245 242 239 240 243 244 244 241 239 238 240 240 240 242 244 245 246 247 246 245 245 245 245 246 247 248 248 249 249 250 249 250 251 251 253 255 258 259 256 251 252 255 257 259 262 264 264 261 260 263 267 269 270 271 273
285 286 287 288 287 285 284 283 283 283 284 283 279 275 273 272 273 271 268 265 263 262 261 259 257 253 249 249 250 248 244 242 240 240 242 243 243 241 239 238 238 237 237 239 242 243 245 245 244 244 245 246 246 246 247 248 249 250 250 250 250 250 250 251 252 254 256 258 257 254 254 258 260 259 255 253 257 261 265 268 271 271 271 272 273
284 285 285 286 286 284 282 281 281 280 281 282 281 279 275 271 270 270 271 269 265 264 263 260 258 256 251 247 247 248 247 244 242 240 241 242 241 240 238 237 237 236 236 237 239 242 243 243 242 243 245 246 247 246 247 248 249 249 249 249 250 250 251 252 253 254 255 257 258 257 256 255 256 256 253 251 257 264 268 269 270 271 273 274 275
283 283 283 284 286 285 281 279 278 279 279 279 279 280 278 275 271 268 269 270 268 267 265 262 260 258 255 250 247 247 247 245 242 241 240 239 239 237 237 237 237 236 236 237 239 241 242 242 241 241 244 247 248 247 246 247 248 248 249 250 250 251 252 253 254 255 256 256 257 257 257 256 255 255 255 257 260 264 266 268 270 272 274 275 277
281 281 281 283 285 285 282 278 276 276 276 277 277 277 278 278 276 272 269 269 270 270 268 266 262 259 256 252 248 246 244 241 241 242 242 240 239 238 237 239 240 239 237 237 239 241 242 242 240 241 245 248 249 249 248 248 248 249 250 251 251 253 254 254 255 255 255 255 256 256 257 258 258 257 257 259 261 264 266 269 271 273 276 278 279
281 281 282 283 283 283 281 278 276 274 273 274 275 275 276 277 276 275 273 271 271 272 272 270 266 260 255 253 251 248 244 240 241 243 244 243 242 241 239 240 242 243 241 239 241 242 243 243 242 241 245 249 250 251 250 250 250 251 251 252 252 253 254 254 255 254 254 254 254 255 256 258 260 261 261 262 263 264 266 270 273 276 278 279 279
282 282 282 283 282 282 280 278 275 273 272 272 272 273 274 275 275 275 274 273 272 272 273 272 268 261 255 252 251 249 244 242 243 244 243 244 245 245 243 242 243 244 242 240 241 243 244 245 244 244 246 249 251 252 254 253 253 252 252 252 252 253 253 253 253 254 254 254 255 256 257 260 262 264 265 266 266 266 268 272 275 276 277 277 278
282 282 282 282 281 281 279 278 275 273 271 271 271 271 271 272 274 274 274 275 273 272 271 271 267 259 251 248 248 247 245 245 247 245 242 242 244 246 246 243 242 241 240 239 240 242 244 245 245 246 249 250 251 253 256 257 256 254 253 252 251 252 252 253 253 253 254 255 256 257 259 261 264 266 268 269 270 270 272 273 274 275 276 277 278
279 280 280 281 280 279 278 277 275 273 271 270 270 270 270 270 271 272 273 275 275 273 271 268 262 254 248 243 240 239 240 243 246 244 239 236 237 240 242 241 240 240 239 239 239 241 243 243 244 248 252 253 253 254 255 257 257 256 254 252 251 250 251 252 253 255 255 256 257 259 260 262 264 266 268 269 270 271 272 273 274 276 278 278 278
275 276 277 278 278 278 277 276 275 273 271 270 270 270 270 270 270 270 271 273 275 275 273 268 257 248 245 243 238 234 235 238 239 238 235 231 230 232 235 236 238 240 239 238 239 240 242 245 246 250 253 255 256 256 255 256 257 257 255 254 252 250 250 251 253 255 257 258 259 259 261 263 265 266 267 268 269 271 272 274 275 277 277 277 277
273 273 274 274 275 276 276 275 275 274 273 272 271 271 270 270 270 271 270 271 273 275 274 268 253 243 243 244 238 234 237 241 240 235 232 229 226 228 231 233 235 238 239 238 239 239 240 243 245 248 251 255 258 259 257 256 256 257 257 256 254 252 251 252 254 257 258 259 259 260 261 263 264 265 266 268 270 271 273 274 275 274 274 274 275
273 273 273 273 273 274 274 274 274 274 274 273 272 271 271 270 270 270 271 271 272 273 270 260 244 237 241 244 240 236 237 244 245 236 229 226 226 229 234 236 236 238 240 239 238 238 239 241 243 245 248 252 256 258 259 260 260 260 260 259 256 253 253 253 255 257 259 260 261 262 263 263 263 265 266 268 270 271 272 272 271 270 271 272 275
273 273 272 272 272 273 273 273 273 273 273 273 273 272 271 271 270 269 268 269 269 268 263 255 247 244 244 243 241 238 236 241 245 237 229 228 228 230 234 237 237 238 239 239 239 239 241 243 245 246 248 250 253 256 259 262 262 262 263 262 257 253 253 254 255 256 257 259 261 263 264 264 264 265 267 269 270 270 270 269 268 269 271 273 276
273 272 271 271 270 270 271 272 272 272 272 273 273 273 272 271 270 268 266 265 265 263 260 256 253 251 246 243 245 240 234 235 239 236 231 232 234 235 237 240 243 242 239 239 243 247 251 255 256 257 257 258 259 260 261 262 261 261 263 262 257 253 253 254 255 257 259 261 263 264 265 266 266 267 268 269 269 268 267 268 269 270 272 274 277
273 272 271 270 269 269 269 269 270 270 271 271 272 272 271 270 269 266 264 263 262 261 258 253 249 247 247 252 260 253 237 231 231 231 230 232 236 239 242 246 249 251 249 249 252 257 260 261 261 261 263 264 264 264 263 262 260 260 261 260 257 254 254 255 257 259 261 264 265 265 264 265 265 265 266 266 266 267 268 270 271 272 273 275 278
275 273 272 270 269 268 267 267 267 268 269 269 269 269 269 269 268 265 262 260 260 259 256 250 247 247 249 254 258 255 245 238 234 233 233 234 237 241 244 246 248 250 250 250 251 254 257 258 257 257 259 261 262 263 262 261 261 260 260 258 257 257 258 258 259 260 261 264 264 261 260 261 262 262 264 266 267 268 270 271 272 274 277 279 282
277 275 274 272 271 270 268 267 266 265 265 266 267 267 267 267 266 263 261 259 257 256 254 249 246 245 245 248 252 251 247 245 243 242 241 242 242 242 243 244 245 245 246 248 251 254 256 256 256 255 256 258 260 258 257 257 257 256 257 258 259 259 260 259 259 260 262 263 261 257 256 258 260 261 264 265 265 266 269 272 276 279 281 283 285
280 277 275 273 271 270 269 268 267 266 265 264 264 265 265 266 264 262 260 258 255 253 252 249 246 245 244 246 249 249 247 247 247 246 246 247 246 244 242 243 244 246 249 253 256 256 255 254 254 253 252 254 255 253 252 253 253 253 255 258 259 259 260 260 261 261 260 257 255 253 254 257 259 260 260 261 264 269 274 278 280 282 283 284 285
287 283 280 276 273 271 269 268 267 266 266 265 263 262 262 262 262 261 260 257 254 251 249 248 246 245 245 246 249 250 249 249 249 248 247 248 248 246 245 245 247 250 253 256 257 255 253 252 251 250 249 249 250 249 250 251 253 254 255 257 258 259 261 261 260 257 251 247 248 251 255 257 257 257 260 265 271 276 279 281 282 282 282 282 283
293 290 287 283 279 275 272 269 267 265 265 264 263 262 261 260 259 258 258 257 255 251 249 248 247 245 243 243 245 246 247 247 248 248 248 249 250 250 251 252 254 256 258 259 259 256 253 251 250 248 247 247 247 246 247 249 251 253 255 258 259 259 256 253 250 247 244 245 249 253 255 256 258 263 268 273 276 278 279 280 280 280 279 280 281
296 295 293 290 286 282 277 274 271 268 266 264 262 262 261 260 259 258 257 256 255 252 248 247 247 246 244 243 243 244 246 247 248 248 249 249 251 252 253 254 257 259 261 263 263 261 257 254 252 251 250 248 248 248 250 252 254 256 259 260 257 251 246 244 245 247 248 251 253 253 255 258 264 269 271 272 273 275 277 277 276 276 277 279 280
300 298 296 294 291 288 284 279 276 272 269 266 264 262 261 260 260 259 258 256 254 251 249 247 246 246 246 246 246 246 247 248 250 251 252 252 253 254 255 255 257 259 261 263 264 263 260 257 256 256 255 254 254 255 257 258 259 260 259 257 251 245 243 246 249 251 252 253 254 254 256 261 265 266 266 267 270 272 273 273 274 275 277 279 281
309 306 302 299 296 292 288 284 280 276 273 269 267 265 263 261 259 258 257 256 254 252 250 248 247 246 245 246 248 248 249 249 250 252 254 255 256 257 257 257 257 258 259 261 263 263 261 258 257 257 257 257 258 258 259 259 258 257 255 252 249 246 248 250 252 252 253 255 255 256 258 260 261 262 263 266 269 270 271 273 275 276 279 281 284
322 318 314 310 305 300 295 289 284 280 276 272 269 267 265 264 262 259 257 255 254 253 252 250 249 248 247 246 247 248 249 250 251 252 254 256 258 258 259 260 260 260 261 262 262 262 261 258 256 255 255 255 256 257 257 257 255 253 251 250 250 250 250 250 250 250 252 254 255 256 257 259 261 263 265 268 270 272 274 276 277 280 283 286 288
335 332 329 324 318 311 305 298 291 285 281 277 273 269 267 265 264 263 260 257 255 253 253 251 250 250 250 250 250 250 251 251 252 253 254 255 256 257 258 258 260 261 263 264 264 263 261 259 256 254 253 252 253 254 255 255 254 252 251 251 252 251 250 248 248 249 252 254 257 258 260 262 264 267 269 271 273 275 277 279 282 284 286 288 290
341 341 340 337 332 325 317 309 301 294 288 283 279 275 271 268 266 264 262 260 257 255 254 253 251 250 250 251 252 253 254 254 255 256 257 257 257 257 257 256 256 257 258 260 260 260 258 257 255 254 253 253 253 253 253 251 250 249 249 250 250 250 250 251 253 255 258 260 262 263 264 266 268 270 272 274 276 278 280 282 284 286 288 290 292
344 345 345 345 343 337 329 320 311 304 298 292 288 284 279 274 270 268 265 262 260 258 255 254 253 252 250 250 250 251 253 254 255 257 259 259 260 259 259 258 257 256 256 257 257 257 256 255 254 253 253 252 252 252 251 251 250 250 250 251 252 254 256 258 261 262 263 264 265 266 267 269 271 273 275 276 278 280 282 284 287 289 292 294 296
346 347 348 348 348 345 339 329 318 310 305 302 298 293 289 283 278 274 270 266 263 261 258 256 254 253 252 251 251 251 251 252 253 255 256 257 256 256 256 256 257 257 257 257 257 256 256 256 255 255 254 254 254 254 255 256 256 256 256 257 258 260 261 263 264 265 266 266 267 268 270 271 273 275 277 279 282 284 287 289 292 294 296 297 298
347 348 348 349 350 349 346 339 328 316 309 306 304 301 296 292 287 282 279 275 270 266 262 259 256 254 253 253 252 251 251 250 251 253 254 255 255 255 254 254 255 256 257 257 257 257 257 257 257 257 257 257 257 258 258 259 260 261 261 262 262 263 264 265 266 266 267 268 270 271 273 275 278 280 282 285 287 289 291 293 294 296 297 298 300
349 348 349 349 350 350 348 344 337 326 315 309 308 306 303 298 294 289 286 283 280 275 270 265 261 258 256 255 255 254 252 251 250 250 252 254 255 256 257 257 256 257 257 258 259 259 259 259 259 258 258 258 258 259 259 260 261 262 263 264 264 265 266 266 267 269 270 272 274 276 278 280 282 284 285 287 289 291 292 294 296 297 299 300 300
351 350 349 349 349 350 349 346 341 333 323 314 310 309 308 304 299 294 291 288 286 284 280 276 270 265 261 258 257 256 255 254 252 252 252 253 254 255 256 257 258 258 258 258 259 259 259 259 259 258 258 258 258 259 259 260 261 262 263 264 265 266 267 268 270 271 273 275 277 278 280 281 283 285 287 289 291 293 295 296 298 299 300 299 298
351 350 350 349 349 349 349 347 343 337 328 319 313 311 310 307 303 298 294 291 289 287 286 284 280 275 269 263 260 258 257 256 255 254 254 255 255 254 255 256 257 258 258 258 258 259 259 259 259 258 258 258 258 259 259 260 262 263 264 266 267 268 269 270 271 273 275 277 278 280 282 283 285 287 289 291 293 295 297 298 299 299 298 297 297
350 350 350 349 348 348 348 347 344 339 331 323 316 312 311 310 307 302 297 294 291 289 287 286 285 283 278 272 266 261 259 257 255 254 255 256 256 256 256 256 256 256 257 258 258 258 257 257 258 258 259 259 259 260 260 261 263 264 265 266 267 268 269 270 272 274 276 277 279 281 283 285 287 290 292 294 295 297 298 298 298 297 296 296 297
348 348 348 348 347 347 347 347 345 341 334 326 319 315 314 314 311 307 302 297 294 291 288 286 284 282 281 278 273 268 263 260 257 255 254 254 254 255 256 256 256 256 256 257 257 257 257 257 257 257 257 257 257 257 258 259 259 260 261 262 263 265 266 269 270 272 274 277 279 282 286 288 291 293 295 297 298 298 298 298 297 297 296 296 297
345 346 346 347 347 346 346 346 345 343 337 329 322 317 317 317 316 312 307 301 297 294 292 288 284 281 279 277 275 272 268 264 260 257 255 253 252 252 252 253 254 255 255 255 255 255 255 256 256 255 255 255 255 255 255 255 255 256 258 259 262 264 266 268 271 274 277 281 285 289 292 294 296 297 299 300 300 299 299 298 297 296 297 297 298
343 344 344 345 345 346 345 345 344 343 339 332 324 319 317 318 319 318 313 306 300 297 294 291 286 282 279 276 274 272 270 267 263 259 256 254 252 250 249 249 249 250 250 250 251 252 252 252 252 251 251 251 251 252 253 254 255 258 260 262 264 266 269 272 275 279 284 287 291 294 296 298 299 301 301 301 301 300 298 298 297 296 296 296 297
341 341 342 343 344 345 345 344 343 342 340 334 326 319 317 318 319 320 319 314 305 298 295 292 288 284 280 276 273 272 271 269 266 262 258 255 252 250 248 247 246 246 245 245 246 246 247 246 246 246 246 247 248 249 250 252 255 257 259 262 264 267 271 275 279 283 286 289 292 294 297 299 301 302 302 301 300 299 298 297 296 296 295 295 295
339 340 340 341 342 343 344 343 342 341 339 336 328 319 315 315 317 319 320 319 313 304 296 293 290 287 282 278 275 272 271 270 268 265 261 257 254 251 248 246 245 244 243 242 242 241 241 241 241 241 241 242 243 245 247 250 253 256 259 262 265 268 272 276 280 283 286 288 290 293 296 299 302 303 303 302 300 299 297 296 296 296 295 295 295
337 338 339 340 341 342 343 343 342 341 339 336 329 320 312 311 313 316 319 320 320 316 308 301 295 291 286 280 276 273 271 271 270 268 264 259 255 252 249 247 245 243 241 240 239 238 237 236 236 236 237 238 239 242 245 249 252 255 258 261 265 268 272 276 279 282 284 286 287 290 294 298 302 304 304 303 302 300 299 298 297 296 296 296 296
Height
5751 5750 5749 5749 5747 5746 5745 5743 5742 5741 5741 5742 5742 5743 5743 5743 5745 5747 5749 5750 5751 5752 5753 5754 5754 5755 5755 5756 5757 5758 5759 5760 5761 5763 5764 5766 5767 5769 5771 5772 5773 5775 5776 5777 5779 5780 5781 5782 5783 5784 5785 5785 5786 5786 5786 5787 5787 5787 5788 5788 5789 5789 5790 5791 5791 5791 5792 5792 5792 5792 5793 5793 5794 5795 5796 5796 5797 5797 5798 5799 5799 5800 5800 5800 5800
5749 5748 5747 5746 5745 5744 5743 5741 5740 5739 5738 5739 5739 5739 5739 5739 5741 5743 5745 5746 5748 5749 5750 5751 5751 5752 5753 5753 5754 5755 5756 5757 5759 5760 5761 5762 5764 5766 5768 5769 5770 5771 5772 5774 5775 5776 5778 5779 5780 5781 5782 5782 5783 5784 5784 5784 5785 5785 5785 5785 5786 5786 5787 5788 5789 5789 5789 5789 5789 5790 5790 5791 5792 5792 5793 5793 5794 5795 5795 5796 5796 5797 5797 5797 5798
5747 5746 5745 5744 5743 5742 5741 5740 5738 5737 5735 5736 5736 5735 5735 5736 5738 5739 5741 5742 5744 5745 5746 5747 5748 5749 5750 5751 5751 5752 5753 5754 5755 5757 5759 5759 5759 5761 5764 5766 5767 5768 5769 5770 5772 5773 5774 5776 5777 5778 5779 5779 5780 5781 5781 5782 5782 5782 5782 5782 5783 5783 5784 5785 5786 5786 5786 5786 5787 5787 5788 5789 5790 5790 5790 5791 5791 5792 5792 5793 5794 5794 5794 5795 5795
5744 5744 5743 5742 5741 5740 5739 5738 5737 5735 5733 5732 5732 5732 5733 5734 5735 5736 5737 5739 5741 5741 5742 5744 5744 5745 5747 5748 5748 5749 5750 5750 5751 5753 5756 5756 5756 5758 5760 5762 5764 5766 5767 5768 5769 5770 5771 5772 5774 5775 5775 5776 5777 5778 5778 5779 5779 5779 5779 5779 5780 5780 5781 5782 5783 5783 5783 5783 5784 5785 5786 5786 5787 5787 5788 5788 5789 5789 5789 5790 5791 5791 5792 5792 5792
5742 5741 5740 5740 5739 5738 5737 5736 5735 5733 5731 5730 5730 5730 5730 5731 5732 5733 5735 5736 5737 5738 5739 5740 5741 5742 5743 5744 5745 5746 5746 5746 5747 5749 5752 5753 5754 5755 5757 5759 5761 5763 5764 5765 5767 5768 5769 5769 5770 5771 5772 5773 5774 5775 5775 5776 5776 5776 5776 5776 5777 5777 5778 5779 5780 5780 5780 5780 5781 5782 5783 5783 5784 5784 5785 5785 5786 5786 5786 5787 5788 5788 5789 5789 5789
5739 5739 5738 5737 5736 5735 5734 5734 5732 5731 5729 5728 5727 5727 5727 5728 5729 5730 5732 5733 5734 5735 5736 5737 5737 5738 5739 5739 5741 5742 5742 5742 5743 5745 5747 5749 5751 5752 5754 5756 5758 5759 5761 5762 5763 5764 5765 5766 5767 5768 5769 5769 5770 5771 5772 5772 5773 5773 5773 5773 5774 5774 5774 5775 5776 5777 5777 5778 5778 5779 5779 5780 5780 5781 5781 5782 5782 5783 5783 5784 5785 5785 5785 5785 5785
5736 5736 5735 5734 5733 5732 5732 5731 5730 5729 5728 5726 5725 5724 5725 5725 5726 5728 5729 5731 5731 5732 5732 5733 5734 5734 5735 5736 5736 5737 5738 5738 5739 5741 5743 5745 5747 5750 5751 5753 5754 5756 5758 5758 5759 5760 5761 5762 5763 5764 5765 5766 5766 5767 5768 5769 5769 5769 5769 5770 5770 5770 5771 5772 5773 5774 5774 5775 5776 5776 5776 5777 5777 5778 5778 5778 5779 5780 5780 5780 5780 5781 5781 5781 5781
5733 5733 5732 5731 5730 5729 5729 5728 5728 5727 5725 5724 5723 5723 5723 5724 5724 5725 5726 5727 5728 5728 5729 5730 5731 5731 5732 5732 5733 5733 5734 5734 5736 5737 5739 5741 5744 5746 5748 5749 5751 5752 5754 5754 5755 5756 5757 5758 5759 5760 5761 5762 5763 5763 5764 5765 5765 5765 5766 5766 5767 5767 5767 5768 5769 5770 5771 5772 5773 5773 5774 5774 5774 5775 5775 5775 5776 5777 5777 5776 5776 5777 5777 5777 5777
5731 5730 5729 5728 5727 5726 5726 5725 5725 5724 5723 5722 5721 5721 5722 5722 5722 5723 5723 5724 5724 5725 5725 5726 5727 5728 5728 5728 5729 5730 5730 5731 5732 5733 5735 5737 5739 5741 5743 5745 5746 5748 5750 5751 5752 5752 5753 5754 5755 5756 5757 5758 5759 5760 5760 5761 5762 5762 5762 5763 5763 5763 5764 5765 5766 5767 5768 5769 5770 5771 5771 5771 5771 5771 5771 5772 5772 5773 5772 5772 5773 5773 5773 5773 5773
5728 5727 5727 5726 5724 5723 5723 5722 5722 5722 5721 5720 5719 5719 5719 5719 5720 5721 5721 5721 5721 5721 5721 5722 5723 5724 5725 5725 5725 5726 5727 5727 5728 5729 5731 5733 5735 5737 5738 5740 5742 5744 5746 5747 5748 5748 5749 5750 5751 5752 5753 5754 5755 5756 5757 5758 5758 5758 5758 5759 5759 5760 5760 5761 5762 5763 5765 5766 5767 5768 5768 5767 5767 5767 5767 5768 5768 5768 5768 5768 5769 5769 5770 5769 5769
5725 5725 5724 5723 5722 5721 5720 5719 5719 5719 5718 5718 5717 5716 5716 5717 5717 5718 5718 5718 5717 5717 5718 5718 5719 5720 5721 5721 5721 5722 5723 5724 5725 5726 5727 5729 5731 5733 5734 5736 5738 5740 5742 5743 5744 5744 5745 5746 5747 5748 5748 5749 5751 5752 5753 5754 5754 5754 5755 5755 5755 5756 5756 5758 5758 5759 5761 5763 5765 5766 5765 5762 5762 5763 5764 5764 5764 5764 5764 5765 5765 5765 5765 5765 5764
5722 5721 5721 5720 5719 5718 5717 5716 5716 5715 5715 5715 5714 5714 5714 5714 5714 5715 5715 5714 5714 5714 5714 5714 5715 5717 5717 5717 5718 5718 5719 5719 5720 5722 5723 5725 5727 5728 5730 5732 5733 5736 5737 5738 5739 5740 5741 5742 5742 5743 5744 5745 5746 5747 5749 5750 5750 5751 5751 5751 5752 5752 5752 5754 5754 5755 5757 5759 5762 5764 5761 5757 5758 5760 5760 5760 5760 5760 5760 5761 5761 5761 5761 5760 5760
5718 5718 5717 5717 5716 5716 5715 5714 5713 5712 5712 5712 5712 5711 5711 5710 5711 5711 5711 5711 5710 5710 5710 5710 5711 5712 5713 5713 5713 5714 5714 5715 5716 5717 5718 5720 5722 5723 5725 5727 5729 5731 5733 5734 5735 5735 5736 5737 5738 5739 5740 5741 5742 5743 5745 5746 5747 5747 5748 5748 5748 5748 5749 5749 5750 5751 5753 5755 5757 5759 5756 5753 5755 5757 5757 5756 5755 5755 5756 5757 5757 5757 5757 5756 5756
5714 5714 5713 5713 5713 5712 5711 5711 5710 5709 5709 5708 5708 5708 5708 5707 5707 5707 5707 5707 5707 5706 5706 5706 5707 5707 5708 5709 5709 5709 5710 5710 5711 5712 5713 5715 5717 5719 5721 5723 5724 5726 5728 5729 5730 5731 5732 5733 5734 5735 5736 5737 5738 5739 5741 5742 5743 5744 5744 5744 5744 5744 5745 5745 5746 5747 5748 5750 5752 5753 5752 5752 5752 5753 5754 5753 5751 5751 5752 5752 5752 5752 5752 5752 5751
5709 5709 5709 5709 5709 5708 5708 5707 5707 5706 5706 5705 5705 5704 5704 5704 5703 5703 5702 5702 5702 5702 5702 5702 5702 5703 5703 5704 5704 5705 5706 5707 5707 5707 5709 5711 5712 5714 5716 5718 5720 5721 5723 5724 5726 5727 5728 5729 5730 5731 5732 5733 5734 5735 5737 5738 5738 5739 5740 5740 5740 5740 5741 5741 5742 5743 5744 5745 5746 5747 5748 5748 5748 5748 5749 5749 5748 5747 5748 5747 5747 5747 5747 5746 5746
5705 5705 5705 5705 5704 5704 5704 5703 5703 5702 5702 5701 5701 5701 5700 5700 5700 5699 5699 5698 5697 5697 5698 5697 5698 5698 5698 5699 5700 5701 5702 5703 5703 5703 5704 5706 5708 5710 5711 5713 5715 5716 5718 5719 5720 5722 5723 5724 5725 5726 5727 5728 5730 5731 5732 5733 5734 5734 5735 5736 5736 5737 5737 5737 5738 5739 5740 5741 5741 5741 5742 5743 5744 5744 5744 5744 5744 5743 5743 5743 5743 5742 5742 5741 5741
5700 5700 5700 5700 5700 5700 5700 5699 5699 5698 5698 5697 5697 5696 5696 5696 5696 5695 5695 5694 5693 5693 5693 5693 5693 5694 5694 5694 5695 5697 5697 5698 5698 5699 5700 5702 5703 5705 5706 5708 5710 5711 5713 5714 5715 5717 5718 5719 5720 5722 5723 5724 5726 5727 5728 5728 5729 5730 5731 5732 5732 5733 5733 5734 5734 5735 5736 5736 5736 5736 5737 5738 5739 5740 5740 5740 5739 5739 5738 5738 5738 5738 5737 5737 5736
5695 5695 5695 5695 5695 5695 5695 5695 5694 5694 5694 5693 5692 5692 5692 5692 5692 5691 5691 5690 5689 5689 5688 5688 5689 5689 5689 5689 5691 5692 5692 5693 5694 5695 5697 5698 5699 5700 5701 5703 5705 5706 5708 5710 5711 5712 5713 5714 5716 5717 5718 5720 5721 5722 5723 5723 5724 5725 5726 5727 5728 5728 5729 5729 5730 5731 5731 5732 5732 5733 5733 5733 5734 5734 5735 5735 5735 5735 5734 5734 5734 5733 5733 5732 5731
5690 5690 5690 5690 5690 5690 5690 5690 5689 5689 5689 5689 5688 5688 5688 5688 5687 5687 5686 5686 5685 5684 5684 5684 5684 5684 5684 5685 5686 5687 5688 5689 5690 5691 5693 5694 5695 5696 5697 5698 5700 5701 5703 5705 5706 5707 5709 5710 5711 5712 5713 5715 5716 5717 5718 5718 5719 5720 5721 5722 5723 5724 5724 5725 5726 5726 5727 5727 5728 5728 5729 5729 5729 5730 5729 5730 5730 5730 5730 5730 5729 5728 5728 5727 5726
5686 5685 5685 5684 5684 5685 5685 5685 5684 5684 5684 5684 5684 5684 5684 5683 5683 5682 5682 5681 5681 5680 5680 5679 5679 5679 5679 5681 5682 5683 5684 5685 5686 5687 5688 5689 5690 5691 5692 5693 5694 5696 5697 5699 5701 5702 5704 5705 5706 5707 5709 5710 5711 5713 5713 5714 5715 5716 5717 5717 5718 5719 5719 5720 5721 5721 5722 5723 5723 5724 5724 5724 5724 5725 5724 5724 5725 5725 5725 5724 5724 5723 5722 5721 5721
5681 5680 5680 5679 5679 5679 5679 5680 5680 5679 5678 5678 5679 5679 5679 5679 5678 5678 5677 5677 5676 5676 5675 5675 5674 5674 5675 5676 5678 5678 5679 5680 5682 5682 5683 5685 5685 5686 5687 5689 5689 5691 5692 5694 5695 5697 5699 5700 5701 5703 5704 5705 5706 5708 5708 5709 5710 5711 5712 5712 5713 5714 5715 5715 5716 5717 5717 5717 5718 5718 5719 5719 5719 5719 5719 5719 5719 5719 5718 5718 5717 5717 5716 5716 5715
5676 5676 5675 5674 5674 5673 5673 5674 5674 5674 5673 5673 5674 5674 5674 5674 5673 5673 5673 5673 5672 5672 5671 5670 5669 5670 5670 5671 5673 5674 5674 5676 5677 5678 5678 5680 5680 5681 5683 5684 5685 5686 5687 5688 5690 5692 5694 5695 5697 5698 5699 5700 5701 5702 5703 5704 5704 5705 5706 5707 5708 5709 5709 5710 5711 5711 5712 5712 5713 5713 5713 5713 5714 5714 5714 5713 5713 5713 5712 5712 5712 5711 5710 5710 5709
5671 5671 5670 5669 5668 5668 5668 5668 5668 5668 5668 5668 5668 5668 5669 5669 5669 5669 5669 5668 5668 5668 5667 5666 5665 5665 5666 5667 5668 5670 5670 5671 5673 5673 5673 5675 5675 5677 5678 5679 5679 5680 5682 5684 5685 5687 5689 5690 5692 5693 5694 5695 5696 5696 5697 5698 5699 5700 5700 5701 5702 5703 5703 5704 5705 5706 5706 5707 5707 5707 5707 5707 5707 5707 5707 5707 5707 5706 5706 5706 5706 5705 5704 5704 5703
5665 5665 5665 5664 5663 5662 5662 5662 5662 5662 5662 5662 5662 5663 5663 5664 5664 5664 5664 5664 5664 5664 5663 5662 5661 5661 5662 5663 5664 5665 5666 5667 5668 5669 5669 5670 5671 5672 5674 5675 5675 5676 5677 5679 5681 5682 5684 5685 5686 5688 5689 5689 5690 5691 5691 5692 5693 5694 5695 5696 5697 5697 5698 5698 5699 5700 5700 5701 5701 5702 5702 5701 5701 5701 5701 5701 5700 5700 5699 5699 5699 5699 5698 5697 5696
5659 5659 5659 5658 5658 5657 5656 5656 5656 5656 5656 5656 5656 5656 5657 5658 5659 5659 5660 5659 5659 5660 5660 5659 5658 5658 5658 5658 5658 5659 5661 5662 5663 5664 5664 5665 5667 5668 5669 5671 5671 5672 5673 5675 5676 5678 5679 5680 5681 5682 5683 5684 5685 5685 5686 5686 5687 5688 5689 5690 5691 5691 5692 5693 5693 5694 5694 5695 5695 5695 5695 5695 5694 5695 5695 5695 5694 5694 5693 5693 5693 5693 5692 5690 5690
5653 5653 5652 5652 5652 5651 5651 5650 5650 5650 5650 5650 5650 5650 5651 5652 5653 5654 5654 5655 5655 5655 5656 5655 5655 5655 5655 5655 5654 5654 5655 5657 5658 5660 5661 5662 5663 5664 5665 5666 5667 5668 5669 5670 5672 5673 5674 5675 5676 5677 5678 5678 5679 5679 5680 5680 5681 5682 5683 5683 5684 5685 5686 5687 5687 5687 5688 5688 5688 5688 5688 5688 5688 5689 5689 5689 5689 5688 5688 5687 5687 5686 5686 5685 5683
5647 5646 5646 5646 5645 5645 5645 5645 5644 5644 5643 5644 5644 5644 5644 5645 5646 5647 5648 5649 5649 5650 5651 5651 5651 5651 5651 5651 5651 5651 5652 5653 5654 5656 5657 5659 5660 5660 5661 5661 5662 5664 5665 5666 5667 5668 5668 5669 5670 5671 5672 5672 5673 5673 5674 5674 5675 5675 5676 5677 5678 5679 5680 5681 5681 5681 5682 5682 5682 5682 5682 5682 5682 5682 5683 5683 5683 5682 5682 5681 5680 5680 5679 5679 5678
5640 5640 5640 5639 5639 5639 5638 5638 5638 5638 5637 5637 5638 5638 5638 5639 5640 5640 5641 5643 5643 5644 5645 5646 5646 5646 5646 5647 5647 5648 5649 5649 5650 5651 5653 5654 5655 5655 5656 5656 5657 5658 5660 5661 5662 5662 5663 5663 5664 5665 5666 5666 5666 5667 5667 5668 5669 5669 5670 5671 5671 5672 5673 5673 5674 5674 5675 5675 5675 5675 5675 5675 5676 5676 5676 5676 5676 5676 5676 5675 5674 5673 5673 5672 5670
5634 5633 5633 5633 5633 5633 5632 5631 5631 5632 5631 5631 5631 5632 5632 5632 5633 5634 5635 5636 5637 5638 5639 5640 5640 5641 5642 5642 5643 5644 5644 5645 5646 5646 5647 5648 5649 5649 5650 5651 5652 5653 5654 5655 5656 5656 5657 5657 5657 5658 5659 5659 5659 5660 5661 5661 5662 5663 5663 5664 5664 5665 5666 5666 5666 5667 5667 5667 5668 5668 5668 5669 5669 5670 5670 5670 5670 5670 5669 5669 5668 5667 5665 5664 5662
5626 5626 5626 5626 5626 5626 5625 5625 5625 5625 5625 5625 5625 5625 5626 5626 5626 5627 5628 5629 5630 5631 5632 5633 5634 5635 5636 5637 5638 5638 5639 5640 5640 5641 5641 5642 5643 5643 5644 5645 5646 5647 5648 5648 5649 5649 5650 5650 5651 5651 5652 5653 5653 5654 5654 5655 5656 5656 5656 5656 5657 5658 5658 5658 5659 5659 5660 5660 5661 5662 5662 5663 5663 5664 5664 5664 5663 5663 5662 5662 5661 5659 5658 5656 5655
5620 5619 5618 5618 5619 5618 5618 5618 5618 5618 5618 5618 5618 5619 5619 5619 5619 5620 5621 5622 5623 5625 5626 5627 5628 5629 5630 5631 5632 5633 5634 5634 5635 5635 5636 5636 5637 5637 5638 5639 5640 5641 5642 5642 5642 5642 5643 5643 5644 5644 5645 5646 5647 5648 5649 5650 5650 5651 5650 5650 5650 5650 5650 5650 5651 5652 5652 5653 5654 5655 5656 5657 5657 5657 5657 5657 5657 5656 5655 5654 5653 5652 5651 5649 5648
5614 5613 5612 5611 5611 5611 5610 5610 5611 5611 5611 5611 5612 5612 5612 5612 5612 5613 5614 5615 5616 5618 5619 5620 5621 5623 5624 5625 5626 5627 5628 5628 5629 5630 5630 5630 5631 5631 5632 5633 5634 5635 5635 5635 5635 5635 5636 5636 5637 5638 5639 5639 5641 5642 5643 5644 5644 5644 5643 5643 5643 5643 5644 5644 5644 5645 5646 5647 5648 5649 5650 5651 5651 5651 5651 5650 5650 5649 5648 5647 5646 5645 5644 5643 5641
5610 5609 5607 5606 5605 5604 5604 5603 5603 5603 5603 5604 5605 5605 5605 5605 5606 5606 5607 5608 5609 5611 5612 5614 5615 5616 5617 5618 5620 5621 5621 5622 5623 5623 5624 5624 5625 5625 5626 5627 5627 5628 5628 5628 5628 5628 5629 5629 5630 5631 5632 5633 5634 5635 5636 5636 5637 5637 5637 5637 5637 5637 5638 5638 5639 5640 5641 5642 5642 5643 5644 5644 5645 5644 5644 5643 5643 5642 5641 5640 5639 5638 5637 5636 5634
5607 5605 5603 5602 5600 5599 5598 5597 5596 5596 5596 5596 5597 5597 5598 5598 5599 5600 5601 5602 5603 5604 5605 5606 5608 5609 5610 5612 5613 5614 5615 5615 5616 5617 5617 5618 5618 5619 5620 5620 5621 5621 5621 5622 5622 5622 5622 5622 5623 5624 5625 5626 5627 5628 5629 5629 5630 5630 5630 5630 5631 5632 5632 5633 5634 5634 5635 5636 5636 5637 5638 5638 5638 5637 5637 5636 5636 5635 5634 5633 5633 5632 5631 5629 5628
5604 5602 5600 5598 5596 5595 5593 5592 5591 5590 5590 5590 5590 5590 5590 5591 5592 5593 5594 5595 5596 5597 5598 5599 5601 5602 5603 5605 5606 5607 5607 5608 5609 5610 5611 5611 5612 5613 5613 5614 5615 5615 5616 5616 5616 5616 5616 5616 5617 5618 5619 5620 5620 5621 5622 5622 5623 5624 5624 5625 5625 5626 5627 5627 5628 5628 5629 5630 5630 5631 5631 5631 5630 5630 5630 5629 5628 5628 5627 5627 5626 5625 5624 5623 5621
5601 5598 5596 5594 5592 5590 5589 5587 5586 5585 5585 5584 5584 5584 5584 5584 5585 5586 5587 5588 5589 5590 5592 5593 5594 5596 5597 5598 5599 5600 5600 5601 5603 5604 5604 5605 5606 5606 5607 5608 5609 5609 5610 5610 5610 5611 5611 5611 5612 5612 5613 5614 5615 5615 5616 5617 5617 5618 5619 5619 5620 5621 5621 5622 5622 5622 5623 5623 5624 5624 5624 5624 5623 5623 5622 5622 5622 5621 5621 5620 5619 5618 5617 5615 5614
5598 5596 5593 5591 5589 5586 5584 5583 5581 5580 5579 5579 5578 5578 5578 5578 5578 5579 5580 5581 5582 5583 5584 5586 5588 5589 5590 5591 5592 5593 5594 5595 5596 5597 5598 5599 5600 5601 5602 5603 5603 5604 5605 5605 5605 5606 5606 5606 5607 5607 5608 5608 5609 5610 5610 5611 5612 5612 5613 5614 5615 5615 5615 5615 5616 5616 5616 5616 5616 5617 5617 5616 5616 5616 5616 5615 5615 5614 5614 5613 5612 5611 5610 5609 5608
5596 5593 5591 5588 5585 5583 5580 5578 5577 5575 5574 5574 5573 5573 5573 5573 5573 5573 5573 5574 5575 5576 5577 5579 5580 5582 5583 5584 5585 5586 5588 5588 5590 5591 5592 5593 5594 5595 5597 5598 5598 5599 5600 5601 5601 5601 5602 5602 5602 5602 5603 5603 5604 5605 5605 5606 5606 5607 5607 5608 5608 5609 5609 5609 5609 5609 5609 5609 5609 5610 5610 5610 5610 5610 5610 5609 5609 5608 5608 5607 5606 5605 5604 5602 5601
5594 5591 5589 5586 5583 5580 5577 5575 5573 5571 5570 5569 5568 5567 5567 5567 5567 5567 5567 5567 5568 5569 5570 5572 5573 5574 5576 5578 5579 5580 5581 5582 5583 5584 5585 5587 5588 5589 5590 5592 5593 5594 5595 5595 5596 5597 5597 5597 5597 5598 5598 5599 5599 5600 5600 5601 5601 5601 5602 5602 5602 5602 5602 5602 5602 5602 5602 5603 5603 5603 5604 5604 5604 5604 5604 5603 5603 5602 5602 5601 5600 5598 5597 5595 5593
5592 5589 5586 5584 5581 5578 5575 5572 5570 5568 5566 5565 5564 5563 5562 5562 5562 5562 5562 5562 5562 5563 5563 5565 5566 5568 5569 5571 5573 5574 5575 5576 5577 5578 5579 5581 5582 5583 5584 5585 5586 5588 5589 5589 5590 5590 5591 5591 5592 5592 5593 5593 5594 5594 5594 5595 5595 5595 5595 5595 5595 5595 5596 5596 5596 5596 5597 5597 5598 5598 5598 5598 5598 5598 5598 5597 5597 5596 5595 5594 5593 5591 5589 5588 5586
5590 5587 5584 5582 5579 5576 5573 5570 5568 5565 5564 5562 5561 5560 5559 5558 5557 5557 5557 5557 5557 5557 5557 5558 5559 5561 5562 5564 5566 5568 5569 5570 5571 5572 5573 5574 5576 5577 5578 5579 5580 5581 5582 5583 5583 5583 5584 5585 5585 5586 5586 5587 5587 5588 5588 5588 5589 5589 5589 5589 5589 5590 5590 5591 5591 5591 5592 5592 5593 5593 5593 5593 5592 5592 5591 5591 5590 5589 5588 5587 5586 5584 5583 5581 5579
5589 5586 5583 5580 5577 5574 5571 5568 5566 5563 5561 5560 5558 5557 5556 5555 5554 5553 5553 5553 5552 5552 5552 5553 5553 5554 5556 5557 5559 5561 5562 5564 5565 5566 5567 5568 5569 5570 5571 5572 5574 5575 5576 5576 5577 5577 5578 5579 5579 5580 5580 5581 5581 5582 5582 5583 5583 5583 5584 5584 5585 5585 5586 5586 5586 5587 5587 5587 5587 5587 5587 5587 5587 5586 5585 5585 5584 5583 5582 5581 5579 5578 5576 5574 5572
5588 5585 5582 5578 5575 5572 5569 5566 5564 5561 5559 5558 5556 5555 5553 5552 5551 5550 5549 5549 5549 5548 5548 5548 5548 5549 5550 5551 5553 5554 5555 5557 5559 5560 5561 5561 5563 5564 5565 5566 5568 5569 5570 5570 5571 5572 5572 5573 5573 5574 5575 5575 5576 5577 5577 5578 5578 5579 5579 5579 5580 5580 5581 5581 5582 5582 5582 5582 5582 5582 5582 5581 5581 5580 5579 5579 5578 5577 5576 5574 5573 5571 5570 5568 5567
5587 5584 5581 5577 5574 5571 5568 5565 5562 5559 5557 5556 5554 5552 5551 5549 5548 5547 5546 5546 5545 5545 5545 5544 5544 5544 5545 5546 5547 5548 5549 5550 5552 5554 5555 5555 5557 5558 5559 5560 5561 5562 5563 5564 5565 5566 5567 5567 5568 5568 5569 5570 5570 5571 5572 5573 5573 5574 5574 5575 5575 5576 5576 5577 5577 5577 5577 5576 5576 5576 5576 5576 5575 5575 5574 5573 5572 5571 5570 5568 5567 5566 5565 5564 5562
5586 5583 5579 5576 5573 5570 5567 5563 5560 5557 5555 5553 5552 5550 5548 5547 5545 5544 5543 5542 5542 5541 5541 5541 5541 5541 5541 5541 5541 5542 5543 5544 5546 5548 5549 5550 5551 5552 5554 5555 5556 5556 5557 5558 5559 5560 5561 5562 5563 5563 5564 5565 5565 5566 5567 5568 5568 5569 5570 5570 5571 5571 5571 5572 5572 5572 5572 5571 5571 5571 5571 5570 5570 5569 5568 5567 5566 5565 5564 5563 5562 5561 5560 5559 5557
5585 5581 5578 5575 5572 5568 5565 5562 5559 5556 5553 5551 5549 5547 5546 5544 5543 5541 5540 5539 5539 5538 5538 5537 5537 5537 5537 5537 5537 5538 5538 5539 5540 5542 5543 5544 5546 5547 5549 5550 5550 5551 5552 5553 5554 5555 5556 5557 5558 5558 5559 5560 5561 5562 5563 5563 5564 5565 5566 5566 5566 5567 5567 5567 5567 5567 5567 5567 5566 5566 5566 5565 5564 5563 5562 5561 5560 5559 5559 5558 5557 5556 5555 5554 5553
5583 5580 5576 5573 5570 5567 5563 5560 5557 5554 5551 5549 5547 5545 5544 5542 5540 5539 5538 5537 5536 5535 5534 5534 5534 5534 5533 5533 5533 5534 5534 5535 5535 5537 5538 5539 5541 5542 5543 5545 5546 5546 5547 5548 5549 5550 5551 5552 5553 5554 5554 5555 5556 5557 5558 5559 5560 5561 5561 5562 5562 5562 5562 5563 5563 5562 5562 5562 5561 5561 5560 5559 5558 5558 5557 5556 5556 5555 5554 5553 5553 5552 5551 5549 5548
5581 5578 5575 5571 5568 5565 5562 5558 5555 5552 5549 5547 5545 5543 5541 5540 5538 5537 5536 5535 5533 5532 5532 5531 5530 5530 5530 5530 5530 5530 5531 5531 5532 5532 5533 5535 5536 5537 5539 5540 5541 5542 5543 5544 5545 5546 5547 5548 5549 5549 5550 5551 5552 5553 5554 5554 5555 5556 5556 5557 5557 5558 5558 5558 5557 5557 5557 5557 5556 5556 5555 5554 5554 5553 5553 5552 5551 5550 5550 5549 5548 5548 5546 5545 5544
5579 5576 5573 5570 5566 5563 5560 5556 5553 5550 5547 5545 5542 5540 5539 5537 5536 5535 5534 5533 5532 5530 5529 5528 5528 5527 5527 5527 5527 5527 5527 5528 5528 5529 5530 5531 5532 5533 5534 5535 5536 5537 5538 5539 5540 5541 5542 5543 5544 5545 5546 5547 5548 5549 5550 5550 5551 5552 5552 5553 5553 5553 5553 5553 5553 5553 5553 5552 5552 5552 5551 5550 5550 5549 5549 5548 5548 5547 5546 5545 5544 5544 5543 5542 5541
5577 5574 5571 5568 5564 5561 5558 5554 5551 5548 5545 5542 5540 5538 5537 5535 5534 5532 5531 5530 5529 5528 5527 5526 5525 5525 5525 5524 5524 5524 5524 5525 5525 5526 5526 5527 5528 5529 5530 5531 5532 5533 5534 5535 5536 5537 5538 5539 5540 5541 5542 5543 5544 5545 5546 5547 5547 5548 5548 5549 5549 5549 5549 5549 5549 5549 5549 5549 5548 5548 5548 5547 5547 5546 5546 5545 5544 5543 5542 5541 5541 5540 5539 5538 5537
5575 5572 5569 5566 5562 5559 5556 5553 5549 5546 5543 5540 5538 5536 5534 5533 5532 5530 5529 5528 5527 5526 5525 5524 5523 5522 5522 5522 5521 5522 5522 5522 5522 5523 5523 5524 5524 5525 5526 5527 5528 5529 5530 5531 5532 5533 5534 5535 5536 5538 5539 5540 5541 5542 5542 5543 5544 5544 5545 5545 5545 5546 5546 5546 5546 5546 5546 5545 5545 5545 5545 5544 5544 5543 5542 5542 5541 5540 5539 5538 5537 5536 5535 5534 5533